Location: Lafig�re
(44.4503°N, 4.0357°E)
Time: 14:26:01
(UTC+00:00)

ARGOS - Pass Details

Date: 25 January 2021
Orbit: 821 x 834 km, 98.4° (Epoch: 05 March)

Event Time Altitude Azimuth Distance (km) Brightness Sun altitude
Rises 17:37:18 0° 130° (SE) 3,346 6.0 -9.8°
Reaches altitude 10° 17:39:59 10° 118° (ESE) 2,419 5.2 -10.2°
Maximum altitude 17:44:20 26° 63° (ENE) 1,576 4.1 -11.0°
Drops below altitude 10° 17:48:42 10° 9° (N) 2,438 5.4 -11.7°
Sets 17:51:24 0° 357° (N) 3,377 6.2 -12.2°
